AirNav   Phillips 66 Aviation Fuel
 
 1389 users online  

F62 Hayfork Airport
Hayfork, California, USA

GOING TO HAYFORK?


FAA INFORMATION EFFECTIVE 13 SEPTEMBER 2018

Location

FAA Identifier: F62
Lat/Long: 40-32-49.2000N / 123-10-46.7000W
40-32.820000N / 123-10.778333W
40.5470000 / -123.1796389
(estimated)
Elevation: 2333.8 ft. / 711.3 m (surveyed)
Variation: 17E (1985)
From city: 1 mile S of HAYFORK, CA
Time zone: UTC -7 (UTC -8 during Standard Time)
Zip code: 96041

Airport Operations

Airport use: Open to the public
Activation date: 07/1970
Control tower: no
ARTCC: OAKLAND CENTER
FSS: RANCHO MURIETA FLIGHT SERVICE STATION
NOTAMs facility: RIU (NOTAM-D service available)
Attendance: UNATNDD
Wind indicator: lighted
Segmented circle: yes
Lights: ACTVT MIRL RWY 07/25 - CTAF. MIRL RWY 07/25 OTS INDEF
Beacon: white-green (lighted land airport)
DUSK TO DAWN. OTS INDEF

Airport Communications

CTAF/UNICOM: 122.8
WX AWOS-3 at O54 (17 nm NE): 120.850 (530-623-3810)

Airport Services

Parking: tiedowns
Airframe service: MINOR
Powerplant service: MINOR
Bottled oxygen: NONE
Bulk oxygen: NONE

Runway Information

Runway 7/25

Dimensions: 4100 x 60 ft. / 1250 x 18 m
Surface: asphalt, in fair condition
Weight bearing capacity: 
Single wheel: 12.5
Runway edge lights: medium intensity
Gradient: EAST
RUNWAY 7  RUNWAY 25
Latitude: 40-32.806962N40-32.831865N
Longitude: 123-11.220862W123-10.336328W
Elevation: 2315.6 ft.2333.8 ft.
Gradient: 0.4% UP0.4%
Traffic pattern: leftright
Runway heading: 070 magnetic, 087 true250 magnetic, 267 true
Markings: basic, in fair conditionbasic, in fair condition
Runway end identifier lights: nono
Touchdown point: yes, no lightsyes, no lights
Obstructions: 13 ft. tree, 330 ft. from runway, 65 ft. right of centerline, 10:1 slope to clear43 ft. tree, 850 ft. from runway, 15:1 slope to clear

Airport Ownership and Management from official FAA records

Ownership: Publicly-owned
Owner: COUNTY OF TRINITY
PO BOX 2490
WEAVERVILLE, CA 96093-0476
Phone 530-623-1365
Manager: RICK TIPPETT
PO BOX 2490
WEAVERVILLE, CA 96093-0476
Phone 530-623-1365
DIRECTOR OF TRANSPORTATION; OFFICE IN WEAVERVILLE.

Airport Operational Statistics

Aircraft based on the field: 4
Single engine airplanes: 4
    
Aircraft operations: avg 34/day *
96% transient general aviation
4% local general aviation
* for 12-month period ending 31 December 2016

Additional Remarks

HIGH TERRAIN ALL QUADRANTS.
NOISE ABATEMENT PROCEDURES IN EFFECT N, NE & S OF ARPT.
INTERMITTENTLY CLOSED WINTERS DUE TO SNOW. CTC COUNTY TRANSPORTATION OFFICE FOR INFO 530-623-1365.

Instrument Procedures

There are no published instrument procedures at F62.

Some nearby airports with instrument procedures:

KRDD - Redding Municipal Airport (40 nm E)
KFOT - Rohnerville Airport (43 nm W)
KEKA - Murray Field Airport (45 nm W)
KRBL - Red Bluff Municipal Airport (49 nm SE)
KACV - California Redwood Coast-Humboldt County Airport (49 nm NW)
 
Loc | Ops | Rwys | IFR | FBO | Links
Com | Nav | Svcs | Stats | Notes


 
Area around F62 (Hayfork Airport)
 
Road maps at: MapQuest Bing Google
 
Aerial photo
WARNING: Photo may not be current or correct
Aerial photo of F62 (Hayfork Airport)
Do you have a better or more recent aerial photo of Hayfork Airport that you would like to share? If so, please send us your photo.

 
Sectional chart

 
Airport distance calculator
Flying to Hayfork Airport? Find the distance to fly.

From to F62

Sunrise and sunset
Times for 20-Sep-2018
 Local
(UTC-7)
 Zulu
(UTC)
Morning civil twilight06:3213:32
Sunrise06:5913:59
Sunset19:1302:13
Evening civil twilight19:4002:40

Current date and time
Zulu (UTC)  20-Sep-2018 21:14:58
Local (UTC-7)  20-Sep-2018 14:14:58
 
METAR
KRDD 
40nm E 
202053Z 03016G20KT 10SM CLR 34/M05 A2982 RMK AO2 SLP091 T03391050 58021
KFOT 
49nm W 
202055Z AUTO 28015G19KT 10SM CLR 18/11 A2999 RMK AO1
KRBL 
49nm SE 
202054Z AUTO 34011KT 10SM CLR 34/M02 A2983 RMK AO2 SLP097 T03391022 58021
KACV 
49nm NW 
202053Z AUTO 32009KT 10SM CLR 17/11 A2998 RMK AO2 SLP155 T01670111 56012
TAF
KRDD 
40nm E 
201720Z 2018/2118 36015G21KT P6SM SKC FM210100 36007KT P6SM SKC
KRBL 
49nm SE 
201720Z 2018/2118 34015G21KT P6SM SKC FM210000 35009KT P6SM SKC
KACV 
49nm NW 
201958Z 2020/2118 31007KT P6SM SCT006 TEMPO 2020/2021 BKN006 FM202100 32010G16KT P6SM SKC FM210400 VRB05KT P6SM SCT011 FM210600 VRB04KT 6SM BR BKN009 FM211200 VRB03KT 5SM BR OVC006
NOTAMs
Click for the latest NOTAMs
NOTAMs are issued by the DoD/FAA and will open in a separate window not controlled by AirNav.

 

 
 

Would you like to see your business listed on this page?

 If your business provides an interesting product or service to pilots, flight crews, aircraft, or users of the Hayfork Airport, you should consider listing it here.  To start the listing process, click on the button below
 
Add a business
 

Other Pages about Hayfork Airport

Update a link
 
Copyright © AirNav, LLC. All rights reserved. Privacy Policy  Contact